ROMMA est une association bénévole à but non lucratif. Votre soutien est indispensable : ADHERER à ROMMA ou FAIRE un DON

Voiron - (38, Isère)

Voironnais (300 m)   Longitude: 05° 35' E   Latitude: 45° 23' N Station partenaire n°109
 

Détail journalier du     <<     >>

Température Precipitation Humidité Pression Vent Dir Rafale Dir. rafale Ensol.
Heure (°C) (mm) (%) (hPa) (km/h) (km/h) (min)
01:00 7.607710162NNO6NNO0
02:00 7.208010142NNO6NNO0
03:00 7.607910123NO13NO0
04:00 8.207710112N6N0
05:00 7.607710122E6SE0
06:00 7.807710112SO13ESE0
07:00 8.607510111N10S0
08:00 9.707410122SE13SSE0
09:00 10.407410133E11OSO0
10:00 10.607510142ONO10SSO0
11:00 10.807610153N11N0
12:00 10.70.48210153SSE10E0
13:00 11.20.27810153SSE15SE0
14:00 13.6059101410S23SSE0
15:00 15.1040101311SSO26SSO60
16:00 13.7046101410SSO35OSO0
17:00 13.605210144NNO13NNO0
18:00 13.105110158NNO27N30
19:00 12.105110166ONO26ONO0
20:00 11.105310163ONO15NO0
21:00 9.806110172OSO8N0
22:00 9.106710182N6N0
23:00 8.307110181S8S0
minuit 7.707310182SSO8SSO0

Graphique du 04-03-2019

 

Serveur OMMA